Voltar ao catálogo

CZ-6A DEB

AtivoPO
NORAD 60636·DEBRIS·🇨🇳 China

Lançado Aug 6, 2024 de Taiyuan Satellite Launch Center

Loading…

Próximas Passagens (próximas 24 horas)

TLE

AtualizadoSource: Space-Track

Época: Sep 14, 2026, 11:31 UTC

1 60636U 24140AM  26257.47998357  .00000441  00000-0  20192-3 0  9992
2 60636  88.9904 264.3014 0047319 256.1390 103.4533 14.19225519108772

Acompanhe CZ-6A DEB em tempo real com AllMySat

Download on the App Store